Weather in Žagarė

Lithuania     56°21′45″N   23°15′29″E
temp.,
°C
wind,
m/s
gust,
m/s
humid.,
%
clouds,
%
prec.,
mm/h
press.,
hPa
HPBL,
m
28 july, wed
wed2800:00+18sw359580 0.1 101099
03:00+16wsw359639 0.1 1010113
06:00+16wsw369774 0.0 1010128
09:00+20sw358519 0.0 1011372
12:00+25wsw456090 0.0 10101188
15:00+26sw565271 0.7 10091510
18:00+24wsw47565 0.0 1009377
21:00+22wsw236621 0.0 100924
29 july, thu
thu2900:00+18w117439 0.0 100811
03:00+16wsw3685100 0.1 1008114
06:00+15wsw389661 0.0 1007186
09:00+20wsw57765 0.0 1007703
12:00+24wsw575317 0.0 10071680
15:00+23sw595890 0.0 1006748
18:00+23wsw795397 0.0 10061661
21:00+19wsw51066100 0.0 1006348
30 july, fri
fri3000:00+16sw410799 0.0 1007496
03:00+13ssw511915 0.1 1006251
06:00+14ssw614855 0.0 1005448
09:00+18sw813675 0.0 10051308
12:00+21sw91246100 0.0 10042176
15:00+22sw10124050 0.1 10032455
18:00+20wsw81351100 0.0 10032071
21:00+18sw817618 0.0 10021365
31 july, sat
sat3100:00+18wsw9167292 0.0 10011126
03:00+17wsw7148034 0.0 1002858
06:00+16wsw6138825 0.0 1003585
09:00+20wsw797275 0.0 1003952
12:00+23sw685060 0.0 10041538
15:00+25ssw684428 0.0 10031953
18:00+21sw81167100 0.4 1002989
21:00+18wsw3789100 1.3 1002240
1 august, sun
sun100:00+15sw512920 0.2 1002371
03:00+14ssw6139398 0.2 1003578
06:00+15sw6149499 0.4 1002581
09:00+18wsw711816 0.8 10031240
12:00+22wsw8115128 0.0 10051857
15:00+21wsw7953100 0.1 10061727
18:00+20w5957100 0.0 10061420
21:00+17wsw367094 0.0 1006118